Погода в Кызылорде

Погода в Кызылорде : погода сейчас, прогноз погоды и архив. Всё, что Вы хотите узнать о погоде в Кызылорде!

Хотите узнать прогноз погоды в Кызылорде? Тогда Вам сюда: Погода в Кызылорде

Поиск расширенной информации на нашем сайте:

Другие новости

Новости СМИ2

Главная страница сайта

Новости сайта

03.07.2017

Напоминаем, что на нашем специализированном сайте Метеоцентр.Азия вы можете получить высокодетализированные автоматические прогнозы погоды по пунктам России, СНГ и мира в авиационном формате (включающие направление и скорость ветра, видимость, явления погоды, количество и форму облачности, нижнюю и верхнюю границу облачности).


Погода в Кызылорде - сегодня

Время (UTC), дата Ветер
(°,м/с) 
Видим.   Явления Облачность Т
(°С)
Тd
(°С)
f(%) Тe
(°С)
Pmin
(гПа)
dP
(гПа)
Po
(мм)
O2
(г/м3)
Тmin Tmax R s Состояние
почвы
18 16.06.18 тихо ()   н/о    ясно 
+23.9 +5.9 31 +24  1007  -0.8  744  275    +37.2       
21 16.06.18 тихо ()   н/о    ясно 
+20.8 +8 44 +21  1005.6  -1.5  743  277           
00 17.06.18 тихо ()   20000 м    ясно 
+19.4 +9.7 53 +20  1005.1  -0.6  743  278           
06 17.06.18 160 (Ю) 20000 м    3/0 верхняя 
[Ci fib]
+35.3 +6.1 16 +35  1002.7  -1.3  741  264  +18.9         
09 17.06.18 130 (ЮВ) 20000 м    5/0 верхняя 
[Ci]
+36.1 +4.6 14 +36  1001.1  -1.4  740  263           
12 17.06.18 120 (ЮВ) 20000 м    3/0 средняя 
[Ac cast]
+37.1 +5.8 15 +37  999.5  -1.6  739  261           
15 17.06.18 100 (В) 20000 м    8/3 1000 м кучево-дожд., средняя 
[Cb calv|Ac trans]
+33.6 +12.1 27 +38  999.2  -0.4  739  263    +39.1       
18 17.06.18 070 (В) н/о    6/3 1000 м кучево-дожд., средняя 
[Cb calv|Ac lent]
+28.8 +8.4 28 +29  999.8  0.3  739  268    +39.1       
21 17.06.18 100 (В) н/о    5/0 средняя 
[Ac cast]
+25.1 +7.6 33 +25  998.6  -1.4  738  271           
00 18.06.18 080 (В) 20000 м    3/0 средняя 
[Ac lent]
+19.4 +7.4 46 +20  999.5  0.6  738  277           
06 18.06.18 010 (С) 20000 м    4/0 средняя 
[Ac cast]
+29.4 +4.3 20 +29  1000.8  0.5  740  268  +18.6         
09 18.06.18 340 (С) 20000 м    4/0 средняя 
[Ac cast]
+31.4 +4 18 +31  1001  0.3  740  267           
12 18.06.18 320 (СЗ) 20000 м    4/3 1000 м кучево-дожд., средняя 
[Cb cap|Ac lent]
+30.7 +5 20 +31  1001.8  0.8  741  267           
15 18.06.18 310 (СЗ) 20000 м    6/3 1000 м кучево-дожд., средняя, верхняя 
[Cb cap|Ac lent|Ci]
+27.6 +5.5 24 +28  1003.1  741  270    +33.5       
18 18.06.18 330 (СЗ) н/о    8/0 средняя, верхняя 
[Ac lent|Ci]
+23.3 +4.8 30 +23  1004.2  0.9  742  275    +33.5       
21 18.06.18 350 (С) н/о    4/0 средняя 
[Ac lent]
+19.8 +4.3 36 +21  1004.8  0.4  742  278           
00 19.06.18 010 (С) 20000 м    5/3 1000 м кучево-дожд., средняя 
[Cb calv|Ac lent]
+15.9 +3.2 43 +17  1005.9  0.9  743  282           
06 19.06.18 020 (С) 20000 м    9/4 1000 м кучево-дожд., средняя, верхняя 
[Cb cap|Ac cuf|Ci]
+25 +4.8 27 +25  1005.9  -0.1  743  274  +15.2         
09 19.06.18 030 (СВ) 20000 м    8/6 600 м кучево-дожд., средняя 
[Cb cap|Ac cuf]
+27.7 +5.9 25 +28  1005.3  -0.5  743  271           
12 19.06.18 020 (С) 20000 м    8/8 600 м кучево-дожд. 
[Cb cap]
+28.3 +4.5 22 +28  1005.4  0.2  743  271           
15 19.06.18 320 (СЗ) 20000 м    6/3 1000 м кучево-дожд., верхняя 
[Cb cap|Ci sp]
+26.9 +6.8 28 +27  1005.8  0.3  743  272    +30.6       
18 19.06.18 290 (З) н/о    3/0 верхняя 
[Ci]
+21 +4.1 33 +21  1007.1  744  278    +30.6       
21 19.06.18 340 (С) н/о    ясно 
+20.3 +5.6 38 +20  1007.4  0.2  744  278           
00 20.06.18 340 (С) 20000 м    ясно 
+17 +3.8 41 +18  1008.9  1.3  745  282           
06 20.06.18 360 (С) 20000 м    3/0 средняя 
[Ac cast]
+30.5 +3.8 18 +31  1010  0.2  747  270  +16.3         
Время (UTC), дата Ветер
(°,м/с) 
Видим.   Явления Облачность Т
(°С)
Тd
(°С)
f(%) Тe
(°С)
Pmin
(гПа)
dP
(гПа)
Po
(мм)
O2
(г/м3)
Тmin Tmax R s Состояние
почвы

Для получения пояснительной информации подведите курсор к названию столбца.

ПОГОДА в Кызылорде - архив

Всё, что Вы хотите узнать о погоде в Кызылорде - удобно и подробно!

Выберите нужную дату (начиная с 1 января 2015* года) и нажмите кнопку "Найти".
Будут отображены архивные сводки погоды по пункту Кызылорда, начиная с указанной даты.


Отображать данные в формате CSV (для использования в таблицах Excel)


Внимание! Наш архив погоды предназначен исключительно для личного некоммерческого использования в познавательных целях. Если Вам необходимы официальные справки о состоянии погоды (для производственных, юридических, коммерческих и т.п. целей), обращайтесь в органы Росгидромета.

*Примечание: данная дата относится к архиву по метеостанциям СССР (Россия, СНГ, Балтия).
Архив по метеостанциям Зарубежной Европы и Азии (кроме Китая) хранится 10 дней, по другим регионам земного шара (Китай, Африка, Америка, Австралия, Океания) - 1 день.

Кызылорда - район местоположения метеостанции


Название, широта, долгота, высота метеостанции:
Кызылорда (город) 44.8°ш. 65.5°д. 130 м над ур. моря [Казахстан]

Дополнительная информация

В oтличие oт бoльшинства пoгoдных сайтoв мы публикуем пoдрoбную метеoинфoрмацию в детальнoм прoфессиoнальнoм фoрмате.

Характеристики температуры и влажнoсти вoздуха измеряются на высoте 2 м в тени вдали oт зданий и деревьев.
Скoрoсть ветра измеряется на высoте 10 м (на урoвне рoста челoвека скoрoсть ветра ниже в 1.5-2 раза). Если метеoстанция нахoдится в гoрoде или в лесу, тo скoрoсть ветра занижена на 2-4 м/с пo сравнению с oткрытым местoм. Скoрoсть ветра над акватoриями крупных рек и oзёр, а также на вершинах хoлмoв на 2-5 м/с выше, чем в oбычных услoвиях.
Атмoсфернoе давление в разных тoчках местнoсти мoжет значительнo oтличаться oт давления на метеoстанции, в зависимoсти oт услoвий рельефа (при пoдъёме на 10 м давление пoнижается примернo на 1 мм рт.ст.).